Location: Asheville, NC
(35.6000°N, 82.5500°W)
Time: 11:01:28
(UTC-04:00)

PicSat - Visible Passes

Search period start: 25 May 2018 00:00
Search period end: 04 June 2018 00:00
Orbit: 490 x 504 km, 97.5° (Epoch: 24 May)

Date Brightness Start Highest point End Pass type
(mag) Time Alt. Az. Time Alt. Az. Time Alt. Az.
25 May ? 22:17:00 31° E 22:17:22 31° ENE 22:20:39 10° N visible
25 May ? 23:51:37 12° W 23:51:37 12° W 23:52:49 10° WNW visible
26 May ? 21:56:22 17° E 21:57:08 18° ENE 21:59:39 10° NNE visible
26 May ? 23:31:00 23° W 23:31:00 23° W 23:33:37 10° NW visible
27 May ? 23:10:23 43° W 23:10:23 43° W 23:13:43 10° NNW visible
28 May ? 22:49:45 87° SSW 22:49:49 88° W 22:53:30 10° NNW visible
29 May ? 22:29:07 44° E 22:29:29 46° ENE 22:33:00 10° N visible
30 May ? 22:08:30 23° E 22:09:12 25° ENE 22:12:14 10° NNE visible
30 May ? 23:43:07 16° W 23:43:07 16° W 23:45:14 10° NW visible
31 May ? 21:47:52 13° E 21:48:59 14° ENE 21:50:56 10° NE visible
31 May ? 23:22:29 30° W 23:22:29 30° W 23:25:38 10° NW visible
01 Jun ? 23:01:52 59° WSW 23:01:56 59° W 23:05:34 10° NNW visible
02 Jun ? 22:41:13 63° ESE 22:41:34 69° ENE 22:45:12 10° N visible
03 Jun ? 22:20:35 32° E 22:21:14 35° ENE 22:24:36 10° N visible
03 Jun ? 23:55:13 11° W 23:55:13 11° W 23:56:17 10° WNW visible
